www.pogodaiklimat.ru

Погода и климат >> Архив погоды >> Россия >> Астраханская область >> Лиман


ПОГОДА в Лимане

  • Прогноз погоды в Лимане
  • Монитор погоды в Лимане

АРХИВ ПОГОДЫ в Лимане

Время (UTC), дата Ветер
(напр.,м/с)
 
Видим.   Явления Облачность Т
(С)
Тd
(С)
f
(%)
Тe
(С)
Тes
(С)
Комфортность P
(гПа)
Po
(гПа)
Тmin
(С)
Tmax
(С)
R
(мм)
R24
(мм)
S
(см)
06 15.04 В 6-12
{12}
20 км 10/0
[Cs]
+18.2 +10.4 60 +18 +21 1013.0 1014.8
09 15.04 В 6-12
{14}
20 км 10/0
[Ac trans Cs]
+21.0 +7.7 42 +22 +27 комфорт 1012.8 1014.6
12 15.04 В 5-12
{13}
20 км 10/0
[Cs]
+20.2 +8.8 48 +21 +25 комфорт 1013.1 1014.9
15 15.04 В 4
{12}
20 км 10/0
[Ac cast Cs]
+18.0 +9.1 56 +18 +18 1013.2 1015.0 +21.5
18 15.04 В 2 20 км 10/0
[As trans]
+14.6 +10.5 76 +14 +14 1014.5 1016.4
21 15.04 СВ 3 20 км 9/0
[Ac trans Ci fib]
+13.0 +10.5 85 +12 +12 1012.5 1014.4
00 16.04 СВ 2 20 км 6/0
[Ci fib]
+12.3 +9.4 82 +11 +11 1011.1 1013.0
03 16.04 СВ 2 20 км 9/0
[Ac und]
+12.4 +10.4 88 +11 +12 1011.0 1012.9 +11.7
06 16.04 В 3 20 км 10/0
[Ac trans Cs]
+16.8 +11.5 71 +17 +22 1011.3 1013.1
09 16.04 В 4 20 км 9/3 600 м
[Cu Sc Ac trans Ci sp]
+20.2 +11.3 57 +22 +26 комфорт 1010.1 1011.9
12 16.04 Ю 1
{11}
20 км 10/5 600 м
[Sc diur, vesp Cs]
+18.0 +11.8 67 +19 +23 1009.1 1010.9
15 16.04 В 3 20 км 10/10 600 м
[Cb cap]
+15.3 +11.1 76 +15 +15 1008.9 1010.7 +20.8
18 16.04 В 1 20 км 10/10 600 м
[Sc]
+12.2 +9.7 85 +12 +12 1009.3 1011.2
21 16.04 СВ 1 20 км 10/10 600 м
[Sc]
+12.3 +10.4 88 +12 +12 1008.1 1010.0
00 17.04 В 1 20 км 10/10 600 м
[Sc]
+12.9 +11.0 88 +13 +13 1008.0 1009.9
03 17.04 В 1 4000 м слаб. ливневой дождь 10/10 600 м
[Cb cap]
+13.1 +12.3 95 +13 +13 1007.2 1009.0 +12.0 0.3
06 17.04 В 2 4000 м слаб. ливневой дождь 10/10 300 м
[Cb cap]
+13.3 +12.5 95 +12 +12 1007.8 1009.6
09 17.04 СВ 4
{10}
4000 м ливневой дождь 10/10 300 м
[Cb cap]
+11.1 +10.2 94 +9 +9 1008.0 1009.9
12 17.04 СВ 5-12
{14}
4000 м слаб. ливневой дождь 10/10 300 м
[Cb cap]
+7.9 +6.9 93 +4 +4 1008.9 1010.8
15 17.04 С 6-14
{16}
4000 м слаб. ливневой дождь 10/10 300 м
[Cb cap]
+6.0 +5.1 94 +1 +1 1010.5 1012.4 +13.3 11
18 17.04 С 5-12
{17}
20 км в посл. час ливневой дождь 10/10 600 м
[Sc diur, vesp]
+5.6 +3.4 86 +1 +1 1012.8 1014.7
21 17.04 С 6-15
{15}
20 км 10/0
[Ac As]
+5.3 -2.5 57 +1 +1 1013.1 1015.0
00 18.04 С 5-10
{15}
20 км 10/0
[Ac As]
+4.4 -2.6 60 0 0 1014.2 1016.1
03 18.04 С 5
{12}
20 км 10/0
[Ac As]
+3.6 -3.9 58 -1 -1 1016.4 1018.3 +3.4 0.9
06 18.04 С 5-10
{13}
20 км 6/1 600 м
[Sc Ac trans Ci fib]
+5.8 -3.2 52 +2 +5 1019.0 1020.9 +3.3
09 18.04 С 4
{12}
20 км 3/0
[Ac trans]
+8.3 -3.0 45 +6 +14 1020.5 1022.4
12 18.04 С 4-10
{11}
20 км 3/0
[Ci sp]
+9.8 -5.5 34 +8 +13 1021.0 1022.9
15 18.04 С 2
{10}
20 км 3/0
[Ci fib]
+7.5 -7.6 33 +6 +7 1021.6 1023.6 +9.9
18 18.04 штиль 0 20 км 3/0
[Ci fib]
+2.5 -3.5 65 +2 +2 1023.3 1025.3
21 18.04 штиль 0 20 км 4/0
[Ci fib]
+0.9 -2.3 79 -0 -0 1023.5 1025.5
00 19.04 С 1 4000 м дымка 6/0
[Ci fib]
-0.7 -1.7 93 -3 -3 1023.4 1025.4
03 19.04 С 1 4000 м дымка 10/0
[Cs]
-0.9 -2.1 92 -3 -2 1023.6 1025.6 -1.6
06 19.04 СВ 3 20 км 9/0
[Cs]
+7.3 -5.0 41 +5 +12 1024.6 1026.5
09 19.04 С 3 20 км 9/0
[Ac cast Cs]
+10.6 -8.0 26 +9 +19 опасность
простуды
1023.9 1025.8
12 19.04 С 2 20 км 9/0
[Ac trans Ci sp]
+11.2 -9.3 23 +11 +16 1023.3 1025.2
15 19.04 Ю 2 20 км 9/0
[Ac und]
+8.5 -4.2 40 +7 +7 1023.6 1025.5 +12.1
18 19.04 ЮВ 1 20 км 6/0
[Ac trans Ci fib]
+5.0 -1.5 63 +4 +4 1025.2 1027.2
21 19.04 штиль 0 20 км 3/0
[Ci fib]
+1.4 -0.3 88 0 0 1025.0 1026.9
00 20.04 С 1 20 км 9/0
[Ac und]
+0.4 -1.6 86 -2 -2 1023.9 1025.9
03 20.04 С 1 20 км 10/0
[Ac trans Cs]
+1.9 -1.5 78 0 +1 1023.7 1025.6 +0.2
06 20.04 СВ 4 20 км 6/0
[Ac trans Ci fib]
+11.0 -9.9 22 +9 +15 1024.0 1025.9
09 20.04 СВ 4 20 км 4/0
[Ci fib]
+13.5 -12.4 15 +12 +22 1023.5 1025.4
12 20.04 В 3 20 км 8/0
[Cs]
+14.6 -12.2 14 +14 +20 1022.9 1024.7
15 20.04 В 3 20 км 8/0
[Cs]
+12.1 -8.3 23 +11 +11 1023.5 1025.4 +15.3
18 20.04 Ю 1 20 км 4/0
[Ci fib]
+6.0 -4.2 48 +6 +6 1025.0 1026.9
21 20.04 СЗ 1 20 км ясно +2.7 -2.7 68 +1 +1 1024.5 1026.4
00 21.04 С 1 20 км ясно +0.8 -1.9 82 -1 -1 1023.7 1025.7
03 21.04 СВ 1 20 км 6/0
[Ci fib]
+3.1 -0.6 77 +2 +3 1024.2 1026.2 0.0
06 21.04 В 3 20 км 10/0
[Cs]
+12.5 -5.7 28 +12 +18 1024.5 1026.4
09 21.04 В 4 20 км 10/0
[Ac trans Cs]
+15.1 -6.6 22 +14 +22 1024.0 1025.8
12 21.04 ЮВ 4
{10}
20 км 10/3 600 м
[Sc Ac trans Cs]
+15.4 -6.6 21 +15 +17 1023.3 1025.2
15 21.04 ЮВ 3 20 км 1/0
[Ci fib]
+12.3 +0.3 44 +11 +11 1023.9 1025.8 +16.1
18 21.04 Ю 1 20 км ясно +7.4 +1.3 65 +7 +7 1025.0 1026.9
21 21.04 С 1 20 км ясно +4.0 +1.3 83 +3 +3 1025.0 1027.0
00 22.04 СВ 1 4000 м дымка ясно +2.3 +1.0 91 +1 +1 1024.7 1026.7
03 22.04 СВ 1 4000 м дымка ясно +4.3 +3.4 94 +3 +4 1025.1 1027.1 +1.5

 

Местоположение метеостанции Лиман (Астраханская область, Россия): широта 45.80 долгота 47.22 высота над уровнем моря -18 м.

В архиве по умолчанию представлена погода в Лимане за последнюю неделю. Архивные данные за месяц целиком и за предыдущие месяцы, начиная с января 2011 года, Вы можете получить, выбрав интересующий диапазон дат из раскрывающегося списка и нажав кнопку "Ввод!".


*Определитесь, кто Вы:
робот инопланетянин человек

Внимание! Время в таблицах - всемирное. Для получения местного времени необходимо прибавить поправку, которая равна 4 ч.

Смотрите также архив погоды в соседних городах и на ближайших метеорологических станциях:

Погода в Лагани (Калмыкия, Россия) (46 км)
Погода в Астрахани (Астраханская область, Россия) (79 км)
Погода в Артезиане (Калмыкия, Россия) (102 км)
Погода в Комсомольском (Калмыкия, Россия) (105 км)
Погода в Утте (Калмыкия, Россия) (112 км)
Погода в Зеленге (Астраханская область, Россия) (116 км)
Погода в Досанге (Астраханская область, Россия) (136 км)
Погода на Острове Тюлений (Дагестан, Россия) (149 км)
Погода в Яшкуле (Калмыкия, Россия) (151 км)
Погода в Юсте (Калмыкия, Россия) (163 км)

Пояснения к столбцам:

Ветер - указаны скорость ветра в м/с - средняя за 10 мин, порывы в срок и между сроками (в фигурных скобках) и направление, откуда дует ветер: С - северный, СВ - северо-восточный, В - восточный, ЮВ - юго-восточный, Ю - южный, ЮЗ - юго-западный, З - западный, СЗ - северо-западный.
Видимость - горизонтальная дальность видимости в метрах или километрах. При видимости от 1 до 10 км при отсутствии осадков обычно наблюдается дымка, при ухудшении видимости до 1 км и менее - туман. В сухую погоду видимость может ухудшаться дымом, пылью или мглою.
Явления - указаны атмосферные явления, наблюдавшиеся в срок или в последний час перед сроком; фигурными скобками обозначены явления, наблюдавшиеся между сроками (за 1-3 часа до срока); квадратными скобками обозначены град или гололедные отложения с указанием их диаметра в мм.
Облачность - указаны через наклонную черту общая и нижняя облачность в баллах и высота нижней границы облаков в метрах; квадратными скобками обозначены формы облаков: Ci - перистые, Cs - перисто-слоистые, Cc - перисто-кучевые, Ac - высококучевые, As - высокослоистые, Sc - слоисто-кучевые, Ns - слоисто-дождевые, Cu - кучевые, Cb - кучево-дождевые. Подробнее классификацию облаков см. в Атласе облаков (PDF).
T - Температура воздуха - температура, измеренная на высоте 2 м над землей.
Td - Температура точки росы - температура, при понижении до которой содержащийся в воздухе водяной пар достигнет насыщения.
f - Относительная влажность воздуха - влажноcть воздуха, измеренная на высоте 2 м над землей.
Te - Эффективная температура - температура, которую ощущает одетый по сезону человек в тени. Характеристика душности погоды. При расчете учитывается влияние влажности воздуха и скорости ветра на теплоощущения человека.
Tes - Эффективная температура на солнце - температура, которую ощущает человек, с поправкой на солнечный нагрев. Характеристика знойности погоды. Зависит от высоты солнца над горизонтом, облачности и скорости ветра. Ночью, в пасмурную погоду, а также при ветре 12 м/с и более поправка равна нулю.
P - Атмосферное давление - приведенное к уровню моря атмосферное давление.
Po - Атмосферное давление - измеренное на уровне метеостанции атмосферное давление.
Tmin - Минимальная температура - минимум температуры воздуха на высоте 2 м над землей.
Tmax - Максимальная температура - максимум температуры воздуха на высоте 2 м над землей.
R - Количество осадков - Количество выпавших осадков за период времени, мм. При наведении курсора мыши на число - период времени, за который выпало указанное количество осадков.
R24 - Количество осадков - Количество выпавших осадков за 24 часа, мм.
S - Снежный покров - Высота снежного покрова, см. При наведении курсора мыши на число - состояние снежного покрова и степень покрытия местности в баллах.